Overview Statistics Trail Chart Weather Telemetry Raw packets
 

This is the latest recevied weather packets stored in our database for station/object W6MAF. If no packets are shown the sender has not sent any weather packets the latest 10 day(s).

<< 42 43 44 45 46 47 48 >>
Time Temp. Humidity Pressure Rain* Wind** Luminosity Snow
1788371140 23.89° C 5% - 0 mm 0.45 m/s, 169° - -
1788370850 23.89° C 5% - 0 mm 2.68 m/s, 80° - -
1788370541 23.89° C 5% - 0 mm 0.45 m/s, 219° - -
1788370244 23.89° C 5% - 0 mm 2.68 m/s, 204° - -
1788369946 23.89° C 5% - 0 mm 4.47 m/s, 203° - -
1788369648 23.89° C 5% - 0 mm 2.68 m/s, 224° - -
1788369405 23.89° C 5% - 0 mm 1.79 m/s, 205° - -
1788369351 23.89° C 5% - 0 mm 1.79 m/s, 205° - -
1788368950 23.33° C 5% - 0 mm 5.36 m/s, 205° - -
1788368938 23.33° C 4% - 0 mm 2.24 m/s, 221° - -
1788368752 23.33° C 4% - 0 mm 2.24 m/s, 221° - -
1788368454 23.33° C 5% - 0 mm 5.36 m/s, 205° - -
1788368156 23.33° C 5% - 0 mm 3.13 m/s, 170° - -
1788367859 23.33° C 5% - 0 mm 1.34 m/s, 215° - -
1788367561 23.33° C 5% - 0 mm 4.92 m/s, 211° - -
1788367260 22.78° C 5% - 0 mm 3.58 m/s, 205° - -
1788366665 22.78° C 4% - 0 mm 0 m/s - -
1788366542 22.78° C 5% - 0 mm 0 m/s - -
1788366542 22.78° C 5% - 0 mm 0 m/s - -
1788366367 22.78° C 5% - 0 mm 0 m/s - -
1788366080 22.78° C 5% - 0 mm 0 m/s - -
1788365772 22.22° C 5% - 0 mm 0 m/s - -
1788365471 22.22° C 5% - 0 mm 0 m/s - -
1788364875 21.67° C 5% - 0 mm 0 m/s - -
1788364578 21.67° C 6% - 0 mm 0 m/s - -

* Rain latest hour (hover to see other rain measurements)
** Current wind speed in m/s (hover to see current wind gust speed)